Location: Sternwarte ZA, Rosenfeld-Brittheim
(48.2889°N, 8.6789°E)
Time: 21:31:01
(UTC+02:00)

ISS - Pass Details

Date: 26 May 2017
Orbit: 402 x 409 km, 51.6° (Epoch: 25 May)

Event Time Altitude Azimuth Distance (km) Brightness Sun altitude
Rises 00:11:35 0° 266° (W) 2,330 0.2 -18.8°
Reaches altitude 10° 00:13:42 10° 272° (W) 1,470 -0.8 -18.9°
Maximum altitude 00:16:56 51° 350° (N) 521 -2.9 -19.1°
Drops below altitude 10° 00:20:09 10° 67° (ENE) 1,469 -0.9 -19.2°
Sets 00:22:16 0° 73° (ENE) 2,329 0.1 -19.3°
